SYN001 KPHX-KLAX

Flight info

Callsign SYN001
Flight time 1h 4m
Altitude 32000
Route KEENS3 WLVRN ESTWD HLYWD1
Aircraft BCS3/M-SBDE2E3GIRWXY/LB1

Departure

Time 2026-05-04 02:13
Airport Phoenix Sky Harbor International Airport (KPHX)

Arrival

Time 2026-05-04 03:17
Airport Los Angeles International Airport (KLAX)
Time Latitude Longitude Altitude Speed Heading
2026-05-04 01:49 33.43386 -112.01030 1134 ft 0 kts 345°
2026-05-04 02:00 33.43380 -112.01028 1132 ft 2 kts 345°
2026-05-04 02:00 33.43359 -112.01021 1138 ft 2 kts 358°
2026-05-04 02:00 33.43347 -112.01022 1134 ft 2 kts 16°
2026-05-04 02:00 33.43332 -112.01030 1135 ft 2 kts 43°
2026-05-04 02:01 33.43322 -112.01045 1134 ft 2 kts 69°
2026-05-04 02:01 33.43319 -112.01063 1134 ft 2 kts 91°
2026-05-04 02:01 33.43319 -112.01073 1135 ft 0 kts 91°
2026-05-04 02:04 33.43318 -112.01051 1135 ft 7 kts 96°
2026-05-04 02:04 33.43292 -112.00952 1135 ft 14 kts 97°
2026-05-04 02:04 33.43282 -112.00841 1135 ft 10 kts 92°
2026-05-04 02:04 33.43280 -112.00755 1133 ft 11 kts 87°
2026-05-04 02:05 33.43284 -112.00659 1135 ft 14 kts 88°
2026-05-04 02:05 33.43286 -112.00491 1133 ft 24 kts 91°
2026-05-04 02:05 33.43284 -112.00283 1136 ft 25 kts 90°
2026-05-04 02:05 33.43282 -112.00073 1136 ft 25 kts 90°
2026-05-04 02:06 33.43281 -111.99859 1133 ft 26 kts 90°
2026-05-04 02:06 33.43281 -111.99644 1133 ft 26 kts 89°
2026-05-04 02:06 33.43281 -111.99427 1134 ft 23 kts 89°
2026-05-04 02:06 33.43281 -111.99286 1135 ft 14 kts 100°
2026-05-04 02:07 33.43217 -111.99264 1136 ft 10 kts 221°
2026-05-04 02:07 33.43197 -111.99284 1139 ft 0 kts 221°
2026-05-04 02:09 33.43197 -111.99285 1135 ft 1 kts 221°
2026-05-04 02:09 33.43170 -111.99313 1136 ft 8 kts 221°
2026-05-04 02:10 33.43127 -111.99358 1138 ft 8 kts 223°
2026-05-04 02:10 33.43101 -111.99419 1140 ft 8 kts 262°
2026-05-04 02:10 33.43102 -111.99444 1139 ft 0 kts 274°
2026-05-04 02:12 33.43103 -111.99455 1141 ft 4 kts 274°
2026-05-04 02:12 33.43104 -111.99726 1137 ft 63 kts 270°
2026-05-04 02:12 33.43106 -112.00465 1135 ft 115 kts 270°
2026-05-04 02:12 33.43110 -112.01535 1481 ft 129 kts 268°
2026-05-04 02:13 33.43110 -112.02639 1944 ft 136 kts 267°
2026-05-04 02:13 33.43135 -112.03789 2576 ft 138 kts 266°
2026-05-04 02:13 33.43210 -112.04978 3099 ft 154 kts 268°
2026-05-04 02:13 33.43183 -112.06297 3617 ft 164 kts 252°
2026-05-04 02:14 33.42805 -112.07648 4189 ft 179 kts 246°
2026-05-04 02:14 33.42344 -112.09099 4806 ft 194 kts 247°
2026-05-04 02:14 33.41866 -112.10623 5603 ft 199 kts 247°
2026-05-04 02:14 33.41374 -112.12199 6388 ft 205 kts 246°
2026-05-04 02:15 33.40872 -112.13810 7242 ft 206 kts 246°
2026-05-04 02:15 33.40366 -112.15442 8043 ft 211 kts 245°
2026-05-04 02:15 33.39849 -112.17111 8850 ft 217 kts 245°
2026-05-04 02:15 33.39325 -112.18826 9679 ft 223 kts 248°
2026-05-04 02:16 33.39245 -112.20674 10578 ft 227 kts 270°
2026-05-04 02:16 33.39473 -112.22603 11186 ft 243 kts 274°
2026-05-04 02:16 33.39773 -112.24673 11779 ft 259 kts 275°
2026-05-04 02:16 33.40096 -112.26848 12389 ft 273 kts 276°
2026-05-04 02:17 33.40438 -112.29144 12968 ft 287 kts 276°
2026-05-04 02:17 33.40797 -112.31558 13458 ft 302 kts 276°
2026-05-04 02:17 33.41175 -112.34097 13845 ft 316 kts 276°
2026-05-04 02:17 33.41568 -112.36742 14308 ft 325 kts 276°
2026-05-04 02:18 33.41966 -112.39400 15004 ft 326 kts 276°
2026-05-04 02:18 33.42364 -112.42077 15743 ft 326 kts 276°
2026-05-04 02:18 33.42760 -112.44744 16473 ft 326 kts 276°
2026-05-04 02:18 33.43157 -112.47431 17147 ft 328 kts 276°
2026-05-04 02:19 33.43553 -112.50120 17877 ft 328 kts 276°
2026-05-04 02:19 33.43950 -112.52815 18493 ft 330 kts 276°
2026-05-04 02:19 33.44347 -112.55523 19052 ft 331 kts 276°
2026-05-04 02:19 33.44746 -112.58244 19617 ft 332 kts 276°
2026-05-04 02:20 33.45024 -112.60994 20090 ft 332 kts 270°
2026-05-04 02:20 33.45085 -112.63715 20633 ft 333 kts 269°
2026-05-04 02:20 33.45120 -112.66500 21168 ft 334 kts 269°
2026-05-04 02:20 33.45153 -112.69294 21666 ft 336 kts 269°
2026-05-04 02:21 33.45186 -112.72100 22185 ft 337 kts 269°
2026-05-04 02:21 33.45220 -112.74915 22703 ft 339 kts 269°
2026-05-04 02:21 33.45254 -112.77735 23245 ft 340 kts 269°
2026-05-04 02:21 33.45615 -112.80546 23644 ft 346 kts 284°
2026-05-04 02:22 33.46450 -112.83255 24106 ft 348 kts 287°
2026-05-04 02:22 33.47375 -112.85949 24548 ft 349 kts 288°
2026-05-04 02:22 33.48303 -112.88602 24989 ft 349 kts 288°
2026-05-04 02:22 33.49242 -112.91285 25390 ft 350 kts 288°
2026-05-04 02:23 33.50184 -112.93976 25802 ft 351 kts 288°
2026-05-04 02:23 33.51134 -112.96692 26188 ft 352 kts 288°
2026-05-04 02:23 33.52081 -112.99404 26579 ft 353 kts 288°
2026-05-04 02:23 33.53029 -113.02118 26956 ft 353 kts 287°
2026-05-04 02:24 33.53977 -113.04836 27321 ft 354 kts 287°
2026-05-04 02:24 33.54924 -113.07552 27712 ft 352 kts 287°
2026-05-04 02:24 33.55875 -113.10284 27909 ft 357 kts 287°
2026-05-04 02:24 33.56830 -113.13027 28267 ft 357 kts 287°
2026-05-04 02:25 33.57785 -113.15774 28649 ft 357 kts 287°
2026-05-04 02:25 33.58741 -113.18528 28978 ft 358 kts 287°
2026-05-04 02:25 33.59699 -113.21286 29312 ft 359 kts 287°
2026-05-04 02:25 33.60648 -113.24026 29630 ft 360 kts 287°
2026-05-04 02:26 33.61610 -113.26800 29938 ft 361 kts 287°
2026-05-04 02:26 33.62572 -113.29578 30243 ft 360 kts 287°
2026-05-04 02:26 33.63531 -113.32350 30537 ft 359 kts 287°
2026-05-04 02:26 33.64490 -113.35125 30813 ft 359 kts 287°
2026-05-04 02:27 33.65444 -113.37886 31080 ft 358 kts 287°
2026-05-04 02:27 33.66397 -113.40647 31323 ft 358 kts 286°
2026-05-04 02:27 33.67350 -113.43412 31549 ft 358 kts 286°
2026-05-04 02:27 33.68300 -113.46169 31769 ft 358 kts 286°
2026-05-04 02:28 33.69251 -113.48933 31983 ft 357 kts 286°
2026-05-04 02:28 33.70199 -113.51692 32087 ft 359 kts 286°
2026-05-04 02:28 33.72117 -113.57286 32083 ft 364 kts 286°
2026-05-04 02:29 33.74014 -113.62806 32052 ft 352 kts 286°
2026-05-04 02:29 33.75895 -113.68310 32008 ft 360 kts 286°
2026-05-04 02:30 33.77791 -113.73860 31950 ft 358 kts 286°
2026-05-04 02:30 33.79662 -113.79346 31889 ft 355 kts 285°
2026-05-04 02:31 33.81549 -113.84895 31828 ft 360 kts 286°
2026-05-04 02:31 33.83429 -113.90415 31757 ft 354 kts 285°
2026-05-04 02:32 33.85306 -113.95946 31760 ft 359 kts 285°
2026-05-04 02:32 33.87184 -114.01485 31746 ft 355 kts 285°
2026-05-04 02:33 33.89040 -114.06972 31743 ft 358 kts 285°
2026-05-04 02:33 33.90714 -114.12578 31739 ft 351 kts 278°
2026-05-04 02:34 33.91720 -114.18322 31737 ft 352 kts 277°
2026-05-04 02:34 33.92695 -114.24091 31724 ft 351 kts 277°
2026-05-04 02:35 33.93668 -114.29851 31729 ft 352 kts 277°
2026-05-04 02:35 33.94644 -114.35638 31721 ft 351 kts 277°
2026-05-04 02:36 33.95614 -114.41401 31722 ft 351 kts 277°
2026-05-04 02:36 33.96578 -114.47146 31717 ft 352 kts 277°
2026-05-04 02:37 33.97545 -114.52917 31718 ft 351 kts 276°
2026-05-04 02:37 33.98510 -114.58705 31720 ft 353 kts 276°
2026-05-04 02:38 33.99473 -114.64493 31720 ft 352 kts 276°
2026-05-04 02:38 34.00434 -114.70282 31717 ft 352 kts 276°
2026-05-04 02:39 34.01391 -114.76065 31725 ft 351 kts 276°
2026-05-04 02:39 34.02344 -114.81846 31726 ft 352 kts 276°
2026-05-04 02:40 34.03292 -114.87616 31728 ft 356 kts 276°
2026-05-04 02:40 34.04261 -114.93536 31730 ft 362 kts 276°
2026-05-04 02:41 34.05240 -114.99534 31732 ft 367 kts 276°
2026-05-04 02:41 34.06230 -115.05603 31729 ft 370 kts 276°
2026-05-04 02:42 34.07225 -115.11707 31731 ft 370 kts 276°
2026-05-04 02:42 34.08202 -115.17711 31732 ft 365 kts 276°
2026-05-04 02:43 34.09179 -115.23747 31737 ft 369 kts 276°
2026-05-04 02:43 34.09986 -115.28753 31739 ft 368 kts 276°
2026-05-04 02:44 34.10987 -115.34967 31740 ft 366 kts 276°
2026-05-04 02:44 34.11958 -115.41040 31746 ft 369 kts 276°
2026-05-04 02:45 34.12767 -115.46106 31747 ft 370 kts 276°
2026-05-04 02:45 34.13735 -115.52180 31748 ft 366 kts 276°
2026-05-04 02:46 34.14692 -115.58205 31752 ft 366 kts 276°
2026-05-04 02:46 34.15650 -115.64269 31760 ft 369 kts 276°
2026-05-04 02:47 34.16187 -115.70355 31767 ft 360 kts 264°
2026-05-04 02:47 34.15678 -115.76363 31778 ft 360 kts 262°
2026-05-04 02:48 34.15097 -115.82361 31799 ft 360 kts 262°
2026-05-04 02:48 34.14516 -115.88340 31820 ft 359 kts 262°
2026-05-04 02:49 34.13930 -115.94349 31838 ft 360 kts 262°
2026-05-04 02:49 34.13341 -116.00356 31850 ft 359 kts 262°
2026-05-04 02:50 34.12756 -116.06334 31850 ft 359 kts 262°
2026-05-04 02:50 34.12367 -116.10294 31855 ft 358 kts 262°
2026-05-04 02:52 34.12201 -116.13093 30740 ft 373 kts 273°
2026-05-04 02:53 34.12514 -116.16068 31245 ft 339 kts 267°
2026-05-04 02:53 34.12191 -116.18785 31666 ft 324 kts 256°
2026-05-04 02:53 34.11649 -116.21436 31807 ft 326 kts 257°
2026-05-04 02:53 34.11191 -116.24148 31842 ft 331 kts 259°
2026-05-04 02:54 34.10488 -116.29722 31845 ft 341 kts 261°
2026-05-04 02:54 34.09863 -116.35417 31828 ft 347 kts 261°
2026-05-04 02:55 34.09235 -116.41187 31079 ft 341 kts 261°
2026-05-04 02:55 34.08930 -116.44002 30613 ft 340 kts 261°
2026-05-04 02:55 34.08617 -116.46879 30166 ft 351 kts 261°
2026-05-04 02:56 34.08298 -116.49806 29666 ft 351 kts 261°
2026-05-04 02:56 34.07983 -116.52718 29175 ft 346 kts 261°
2026-05-04 02:56 34.07674 -116.55569 28738 ft 341 kts 261°
2026-05-04 02:56 34.07366 -116.58398 28297 ft 340 kts 261°
2026-05-04 02:57 34.07083 -116.61247 27850 ft 344 kts 261°
2026-05-04 02:57 34.06816 -116.64120 27388 ft 343 kts 262°
2026-05-04 02:57 34.06555 -116.66962 26946 ft 340 kts 262°
2026-05-04 02:57 34.06299 -116.69750 26511 ft 339 kts 262°
2026-05-04 02:58 34.06032 -116.72626 26065 ft 343 kts 262°
2026-05-04 02:58 34.05766 -116.75479 25612 ft 340 kts 262°
2026-05-04 02:58 34.05506 -116.78262 25193 ft 337 kts 262°
2026-05-04 02:58 34.05243 -116.81073 24751 ft 338 kts 262°
2026-05-04 02:59 34.04978 -116.83898 24327 ft 339 kts 262°
2026-05-04 02:59 34.04712 -116.86731 23895 ft 342 kts 262°
2026-05-04 02:59 34.04424 -116.89610 23444 ft 349 kts 260°
2026-05-04 02:59 34.04061 -116.92491 22941 ft 345 kts 259°
2026-05-04 03:00 34.03693 -116.95318 22517 ft 338 kts 259°
2026-05-04 03:00 34.03327 -116.98109 22089 ft 336 kts 259°
2026-05-04 03:00 34.02571 -117.00746 21675 ft 335 kts 240°
2026-05-04 03:00 34.01287 -117.03073 21232 ft 332 kts 244°
2026-05-04 03:01 34.00683 -117.05736 20838 ft 332 kts 264°
2026-05-04 03:01 34.00858 -117.08513 20418 ft 333 kts 273°
2026-05-04 03:01 34.01061 -117.11274 19992 ft 329 kts 268°
2026-05-04 03:01 34.01049 -117.13994 19581 ft 326 kts 264°
2026-05-04 03:02 34.00891 -117.16698 19159 ft 323 kts 262°
2026-05-04 03:02 34.00650 -117.19425 18731 ft 320 kts 261°
2026-05-04 03:02 34.00374 -117.22050 18317 ft 319 kts 260°
2026-05-04 03:02 34.00071 -117.24685 17847 ft 317 kts 259°
2026-05-04 03:03 33.99765 -117.27306 17439 ft 314 kts 259°
2026-05-04 03:03 33.99453 -117.29946 17017 ft 322 kts 259°
2026-05-04 03:03 33.99138 -117.32627 16615 ft 322 kts 259°
2026-05-04 03:03 33.98829 -117.35287 16190 ft 318 kts 259°
2026-05-04 03:04 33.98522 -117.37932 15776 ft 320 kts 259°
2026-05-04 03:04 33.98210 -117.40595 15352 ft 322 kts 259°
2026-05-04 03:04 33.97901 -117.43226 14933 ft 321 kts 259°
2026-05-04 03:04 33.97587 -117.45889 14514 ft 322 kts 259°
2026-05-04 03:05 33.97284 -117.48586 14082 ft 325 kts 262°
2026-05-04 03:05 33.97178 -117.51311 13640 ft 326 kts 265°
2026-05-04 03:05 33.97135 -117.54033 13205 ft 321 kts 265°
2026-05-04 03:05 33.97097 -117.56691 12817 ft 312 kts 265°
2026-05-04 03:06 33.97058 -117.59278 12419 ft 306 kts 265°
2026-05-04 03:06 33.97017 -117.61841 12019 ft 306 kts 265°
2026-05-04 03:06 33.96975 -117.64387 11633 ft 300 kts 265°
2026-05-04 03:06 33.96938 -117.66798 11261 ft 276 kts 265°
2026-05-04 03:07 33.96896 -117.69164 10910 ft 288 kts 266°
2026-05-04 03:07 33.96855 -117.71518 10534 ft 275 kts 266°
2026-05-04 03:07 33.96815 -117.73789 10195 ft 275 kts 266°
2026-05-04 03:07 33.96772 -117.76089 9827 ft 274 kts 266°
2026-05-04 03:08 33.96730 -117.78376 9457 ft 273 kts 266°
2026-05-04 03:08 33.96686 -117.80671 9105 ft 273 kts 266°
2026-05-04 03:08 33.96643 -117.82971 8753 ft 274 kts 266°
2026-05-04 03:08 33.96601 -117.85265 8399 ft 273 kts 266°
2026-05-04 03:09 33.96556 -117.87562 8040 ft 274 kts 267°
2026-05-04 03:09 33.96512 -117.89843 7688 ft 272 kts 266°
2026-05-04 03:09 33.96468 -117.92111 7340 ft 270 kts 267°
2026-05-04 03:09 33.96423 -117.94367 6992 ft 269 kts 267°
2026-05-04 03:10 33.96378 -117.96619 6648 ft 267 kts 268°
2026-05-04 03:10 33.96332 -117.98858 6294 ft 266 kts 268°
2026-05-04 03:10 33.96287 -118.01075 5940 ft 262 kts 268°
2026-05-04 03:10 33.96243 -118.03231 5634 ft 261 kts 268°
2026-05-04 03:11 33.96199 -118.05382 5263 ft 252 kts 268°
2026-05-04 03:11 33.96159 -118.07402 4972 ft 234 kts 268°
2026-05-04 03:11 33.96119 -118.09338 4670 ft 228 kts 268°
2026-05-04 03:11 33.96079 -118.11227 4371 ft 220 kts 268°
2026-05-04 03:12 33.96042 -118.12981 4123 ft 200 kts 268°
2026-05-04 03:12 33.96008 -118.14594 3857 ft 189 kts 268°
2026-05-04 03:12 33.95977 -118.16167 3665 ft 183 kts 268°
2026-05-04 03:12 33.95942 -118.17665 3624 ft 182 kts 266°
2026-05-04 03:13 33.95841 -118.19191 3632 ft 184 kts 263°
2026-05-04 03:13 33.95690 -118.20717 3631 ft 182 kts 262°
2026-05-04 03:13 33.95512 -118.22233 3580 ft 182 kts 261°
2026-05-04 03:13 33.95309 -118.23797 2632 ft 202 kts 261°
2026-05-04 03:14 33.95083 -118.25482 2010 ft 202 kts 261°
2026-05-04 03:14 33.94879 -118.27058 1827 ft 180 kts 262°
2026-05-04 03:14 33.94729 -118.28481 1602 ft 162 kts 263°
2026-05-04 03:14 33.94607 -118.29726 1423 ft 139 kts 263°
2026-05-04 03:15 33.94495 -118.30845 1269 ft 133 kts 263°
2026-05-04 03:15 33.94378 -118.31928 1122 ft 129 kts 264°
2026-05-04 03:15 33.94275 -118.32996 982 ft 130 kts 264°
2026-05-04 03:15 33.94163 -118.34096 797 ft 132 kts 263°
2026-05-04 03:16 33.94049 -118.35174 640 ft 130 kts 263°
2026-05-04 03:16 33.93941 -118.36266 475 ft 133 kts 262°
2026-05-04 03:16 33.93830 -118.37349 287 ft 127 kts 264°
2026-05-04 03:16 33.93723 -118.38390 160 ft 124 kts 263°
2026-05-04 03:17 33.93634 -118.39293 128 ft 84 kts 263°
2026-05-04 03:17 33.93581 -118.39812 125 ft 50 kts 263°
2026-05-04 03:17 33.93570 -118.40157 128 ft 34 kts 281°
2026-05-04 03:17 33.93621 -118.40363 126 ft 18 kts 288°
2026-05-04 03:18 33.93623 -118.40493 128 ft 15 kts 263°
2026-05-04 03:18 33.93609 -118.40622 127 ft 16 kts 261°
2026-05-04 03:18 33.93595 -118.40738 125 ft 5 kts 263°
2026-05-04 03:18 33.93595 -118.40747 126 ft 0 kts 265°
2026-05-04 03:19 33.93595 -118.40748 126 ft 1 kts 265°
2026-05-04 03:19 33.93593 -118.40785 126 ft 10 kts 272°
2026-05-04 03:19 33.93623 -118.40870 126 ft 11 kts 313°
2026-05-04 03:19 33.93699 -118.40900 126 ft 12 kts 352°
2026-05-04 03:20 33.93752 -118.40909 125 ft 6 kts 352°
2026-05-04 03:20 33.93801 -118.40915 126 ft 8 kts 354°
2026-05-04 03:20 33.93855 -118.40903 125 ft 9 kts 43°
2026-05-04 03:20 33.93881 -118.40833 128 ft 8 kts 59°
2026-05-04 03:21 33.93927 -118.40812 126 ft 8 kts
2026-05-04 03:21 33.93987 -118.40816 127 ft 9 kts 356°
2026-05-04 03:21 33.94039 -118.40788 126 ft 6 kts 76°
2026-05-04 03:21 33.94044 -118.40749 126 ft 0 kts 79°